Total_Precipitation_Accumulation
0.10 0.10 0.10 0.12 0.12 0.08 0.06 0.16 0.14 0.07 0.35 1.31 1.66 0.94 0.16 0.03 0.01 0.04 0.07 0.15 0.25 0.22 0.25 0.29 0.43 0.19 0.01 0.00 0.00 0.00 0.00 0.00 0.00 0.00 0.00 0.00 0.00 0.00 0.00 0.00 0.00 0.00 0.00 0.00
0.08 0.09 0.10 0.12 0.13 0.22 0.40 0.36 0.06 0.05 0.50 1.35 0.97 0.40 0.09 0.05 0.01 0.04 0.11 0.12 0.16 0.18 0.19 0.24 0.14 0.14 0.01 0.01 0.01 0.01 0.00 0.00 0.00 0.01 0.00 0.00 0.00 0.00 0.00 0.00 0.00 0.00 0.00 0.00
0.10 0.08 0.08 0.11 0.13 0.19 0.44 0.41 0.20 0.16 0.48 0.81 0.56 0.35 0.16 0.05 0.01 0.02 0.07 0.05 0.07 0.19 0.19 0.23 0.10 0.02 0.02 0.03 0.03 0.04 0.02 0.02 0.00 0.00 0.00 0.00 0.00 0.00 0.00 0.00 0.00 0.00 0.00 0.00
0.11 0.11 0.09 0.10 0.11 0.12 0.35 0.43 0.34 0.49 0.55 0.49 0.56 0.52 0.33 0.09 0.06 0.04 0.02 0.03 0.03 0.14 0.21 0.10 0.04 0.02 0.05 0.02 0.01 0.01 0.09 0.15 0.01 0.00 0.00 0.00 0.00 0.00 0.00 0.00 0.00 0.00 0.00 0.00
0.10 0.10 0.09 0.10 0.10 0.08 0.21 0.49 0.69 0.70 0.50 0.41 0.37 0.44 0.36 0.10 0.07 0.09 0.02 0.02 0.01 0.05 0.19 0.14 0.08 0.08 0.09 0.07 0.06 0.03 0.03 0.09 0.03 0.01 0.00 0.00 0.00 0.00 0.00 0.00 0.00 0.00 0.00 0.00
0.08 0.10 0.08 0.07 0.12 0.20 0.26 0.35 0.49 0.71 0.36 0.54 0.57 0.47 0.33 0.15 0.12 0.13 0.01 0.02 0.06 0.02 0.03 0.07 0.13 0.16 0.11 0.13 0.14 0.19 0.14 0.05 0.01 0.02 0.00 0.00 0.00 0.00 0.00 0.00 0.00 0.00 0.00 0.00
0.06 0.08 0.07 0.06 0.08 0.25 0.26 0.37 0.52 0.63 0.34 0.43 0.69 0.51 0.34 0.14 0.04 0.16 0.01 0.02 0.10 0.02 0.04 0.13 0.11 0.15 0.11 0.10 0.05 0.10 0.14 0.05 0.01 0.01 0.00 0.04 0.01 0.00 0.00 0.00 0.00 0.00 0.00 0.00
0.06 0.07 0.06 0.06 0.06 0.15 0.14 0.20 0.41 0.69 0.52 0.35 0.31 0.43 0.43 0.16 0.17 0.16 0.04 0.05 0.11 0.04 0.07 0.32 0.27 0.31 0.35 0.17 0.03 0.02 0.05 0.06 0.09 0.08 0.03 0.02 0.00 0.00 0.00 0.00 0.00 0.00 0.00 0.00
0.06 0.08 0.06 0.04 0.06 0.10 0.08 0.09 0.27 0.55 0.61 0.35 0.49 0.42 0.54 0.68 0.78 0.52 0.18 0.10 0.10 0.09 0.11 0.41 0.39 0.29 0.23 0.27 0.12 0.02 0.01 0.06 0.16 0.20 0.17 0.07 0.00 0.00 0.00 0.00 0.00 0.00 0.00 0.00
0.06 0.06 0.05 0.04 0.06 0.10 0.07 0.05 0.14 0.33 0.47 0.28 0.39 0.49 0.62 0.80 0.95 0.72 0.49 0.44 0.34 0.27 0.30 0.47 0.43 0.20 0.10 0.18 0.11 0.08 0.10 0.24 0.52 0.48 0.31 0.07 0.00 0.00 0.00 0.00 0.00 0.00 0.00 0.00
0.06 0.05 0.04 0.03 0.06 0.08 0.05 0.02 0.06 0.35 0.45 0.25 0.35 0.51 0.62 0.64 0.80 0.82 0.76 0.77 0.78 0.70 0.83 0.54 0.33 0.28 0.12 0.07 0.14 0.08 0.06 0.14 0.30 0.47 0.58 0.13 0.00 0.00 0.00 0.00 0.00 0.00 0.00 0.00
0.06 0.04 0.04 0.03 0.06 0.08 0.04 0.03 0.05 0.15 0.36 0.25 0.29 0.38 0.57 0.70 0.81 0.91 0.79 0.95 0.76 0.74 0.78 0.71 0.29 0.14 0.17 0.09 0.06 0.10 0.21 0.08 0.07 0.09 0.10 0.00 0.00 0.00 0.00 0.00 0.00 0.00 0.00 0.00
0.04 0.03 0.04 0.04 0.08 0.07 0.04 0.05 0.03 0.11 0.22 0.19 0.17 0.25 0.32 0.47 0.56 0.65 0.89 0.85 0.85 0.72 0.54 0.45 0.43 0.23 0.09 0.12 0.16 0.07 0.06 0.11 0.12 0.10 0.09 0.02 0.01 0.00 0.00 0.00 0.00 0.00 0.00 0.00
0.03 0.03 0.05 0.06 0.08 0.06 0.05 0.04 0.07 0.18 0.23 0.16 0.19 0.20 0.18 0.19 0.18 0.30 0.47 0.59 0.65 0.76 0.72 0.63 0.63 0.47 0.24 0.15 0.10 0.13 0.08 0.03 0.05 0.09 0.13 0.06 0.03 0.00 0.00 0.00 0.00 0.00 0.00 0.00
0.02 0.02 0.03 0.04 0.05 0.03 0.01 0.03 0.07 0.18 0.30 0.16 0.14 0.13 0.17 0.07 0.02 0.03 0.07 0.16 0.34 0.44 0.62 0.78 0.68 0.52 0.45 0.36 0.30 0.32 0.25 0.20 0.12 0.07 0.05 0.05 0.03 0.01 0.00 0.00 0.00 0.00 0.00 0.00
0.01 0.01 0.01 0.01 0.01 0.00 0.00 0.03 0.02 0.09 0.19 0.25 0.15 0.12 0.18 0.07 0.01 0.00 0.00 0.01 0.08 0.20 0.31 0.44 0.48 0.49 0.51 0.46 0.36 0.31 0.28 0.27 0.29 0.25 0.18 0.14 0.12 0.10 0.09 0.06 0.02 0.01 0.00 0.00
0.00 0.00 0.00 0.00 0.00 0.00 0.01 0.04 0.06 0.07 0.11 0.21 0.13 0.11 0.10 0.13 0.05 0.00 0.00 0.00 0.01 0.07 0.16 0.22 0.30 0.31 0.29 0.32 0.26 0.25 0.26 0.29 0.35 0.42 0.42 0.40 0.38 0.32 0.27 0.18 0.21 0.18 0.17 0.11
0.00 0.00 0.00 0.00 0.00 0.00 0.00 0.00 0.00 0.01 0.05 0.05 0.07 0.06 0.05 0.10 0.10 0.04 0.01 0.00 0.01 0.01 0.07 0.08 0.09 0.10 0.15 0.22 0.28 0.30 0.31 0.32 0.30 0.37 0.37 0.34 0.45 0.45 0.43 0.35 0.28 0.28 0.34 0.35
0.00 0.00 0.00 0.00 0.00 0.00 0.00 0.00 0.00 0.00 0.00 0.01 0.02 0.05 0.05 0.05 0.12 0.10 0.04 0.01 0.02 0.02 0.02 0.03 0.01 0.03 0.08 0.18 0.23 0.25 0.27 0.30 0.33 0.40 0.40 0.44 0.36 0.31 0.32 0.31 0.31 0.25 0.33 0.33
0.00 0.00 0.00 0.00 0.00 0.00 0.00 0.00 0.00 0.00 0.00 0.00 0.02 0.05 0.05 0.06 0.10 0.13 0.09 0.04 0.02 0.05 0.07 0.03 0.01 0.05 0.12 0.17 0.21 0.24 0.25 0.30 0.35 0.31 0.38 0.36 0.31 0.27 0.31 0.32 0.33 0.24 0.27 0.28
0.00 0.00 0.00 0.00 0.00 0.00 0.00 0.00 0.00 0.00 0.00 0.01 0.03 0.03 0.03 0.03 0.08 0.10 0.09 0.08 0.04 0.08 0.05 0.03 0.04 0.06 0.12 0.16 0.20 0.23 0.24 0.27 0.33 0.34 0.38 0.43 0.36 0.34 0.30 0.31 0.27 0.21 0.18 0.16
0.00 0.01 0.04 0.00 0.00 0.00 0.00 0.00 0.00 0.00 0.02 0.01 0.02 0.02 0.03 0.02 0.03 0.06 0.02 0.06 0.07 0.10 0.03 0.05 0.05 0.12 0.18 0.20 0.23 0.26 0.27 0.29 0.31 0.37 0.38 0.43 0.41 0.41 0.33 0.28 0.26 0.21 0.16 0.13
0.00 0.02 0.02 0.00 0.00 0.00 0.01 0.01 0.01 0.01 0.01 0.02 0.04 0.03 0.01 0.02 0.04 0.03 0.02 0.03 0.05 0.04 0.03 0.04 0.06 0.14 0.22 0.26 0.28 0.28 0.27 0.29 0.30 0.36 0.39 0.39 0.36 0.36 0.31 0.25 0.23 0.18 0.14 0.12
0.00 0.01 0.00 0.01 0.01 0.04 0.05 0.06 0.05 0.04 0.04 0.03 0.04 0.02 0.02 0.02 0.03 0.04 0.02 0.03 0.01 0.02 0.02 0.04 0.07 0.13 0.21 0.27 0.30 0.28 0.27 0.27 0.27 0.28 0.31 0.31 0.31 0.27 0.22 0.16 0.13 0.09 0.04 0.02
0.00 0.00 0.01 0.02 0.03 0.06 0.07 0.07 0.06 0.05 0.04 0.05 0.04 0.04 0.04 0.03 0.05 0.05 0.02 0.01 0.01 0.02 0.03 0.04 0.07 0.12 0.17 0.22 0.25 0.26 0.26 0.24 0.23 0.24 0.24 0.23 0.21 0.18 0.14 0.10 0.07 0.04 0.02 0.01
0.00 0.00 0.01 0.01 0.01 0.02 0.03 0.03 0.04 0.04 0.05 0.07 0.09 0.07 0.07 0.09 0.07 0.04 0.04 0.03 0.02 0.04 0.05 0.06 0.07 0.08 0.12 0.15 0.18 0.20 0.21 0.22 0.20 0.18 0.16 0.15 0.13 0.12 0.10 0.07 0.04 0.02 0.01 0.00
0.00 0.00 0.00 0.00 0.00 0.00 0.00 0.01 0.02 0.02 0.04 0.07 0.10 0.10 0.09 0.09 0.08 0.05 0.05 0.06 0.06 0.06 0.08 0.07 0.08 0.07 0.08 0.10 0.12 0.14 0.16 0.16 0.16 0.15 0.13 0.11 0.10 0.08 0.06 0.04 0.02 0.01 0.00 0.00